Quillayute, WA
on Tuesday, February 5, 2013

Tuesday
Previous Day Next Day
Daily Summary
 ActualAverageRecord
Temperature
Mean Temperature °F 42°F  
Max Temperature 50°F 49°F 58°F (1978)
Min Temperature 45°F 35°F 21°F (1976)
Degree Days
Heating Degree Days 17 23  
Month to date heating degree days 99 115  
Since 1 July heating degree days 3207 3320  
Cooling Degree Days 0 0  
Month to date cooling degree days 0 0  
Year to date cooling degree days 0 0  
Moisture
Dew Point 42°F   
Average Humidity 79    
Maximum Humidity 86    
Minimum Humidity 71    
Precipitation
Precipitation 1.05 in 0.40 in 1.35 in (1999)
Month to date precipitation 1.14 1.95  
Year to date precipitation 11.48 16.56  
Wind
Wind Speed 9 mph   
Max Wind Speed 22 mph   
Max Gust Speed 35 mph   
Visibility 2 miles   
Events Fog , Rain   

Key: T is trace of precipitation, MM is missing value
Source: NWS Daily Summary
Time(PST)TemperatureDew PointHumidity Pressure Visibility Wind DirectionWind SpeedGust SpeedPrecipitationEvents Conditions
12:32 AM 48.2°F 39.2°F 71% 29.81 in 5.0 miles SSE 10.4 mph 26.5 mph 0.00 in Rain Light Rain
12:41 AM 46.4°F 39.2°F 76% 29.82 in 5.0 miles South 13.8 mph 24.2 mph 0.00 in   Haze
12:51 AM 46.4°F 39.2°F 76% 29.82 in 1.8 miles South 10.4 mph 28.8 mph 0.00 in Rain Light Rain
12:53 AM 46.0°F 39.9°F 79% 29.83 in 1.5 miles South 11.5 mph 28.8 mph 0.00 in Rain Light Rain
1:00 AM 46.4°F 41.0°F 81% 29.82 in 1.0 miles South 9.2 mph 20.7 mph 0.00 in Rain Light Rain
1:06 AM 46.4°F 41.0°F 81% 29.81 in 1.2 miles Variable 6.9 mph 21.9 mph 0.00 in Rain Light Rain
1:08 AM 46.4°F 41.0°F 81% 29.81 in 1.5 miles SSE 9.2 mph 21.9 mph 0.00 in Rain Light Rain
1:28 AM 46.4°F 41.0°F 81% 29.81 in 1.5 miles South 6.9 mph - 0.03 in Rain Rain
1:53 AM 46.0°F 41.0°F 83% 29.82 in 1.5 miles SSE 6.9 mph - 0.11 in Rain Rain
2:00 AM 46.4°F 41.0°F 81% 29.81 in 1.5 miles Variable 6.9 mph - 0.04 in Rain Rain
2:22 AM 46.4°F 41.0°F 81% 29.79 in 2.0 miles SSE 9.2 mph 24.2 mph 0.10 in Rain Rain
2:36 AM 46.4°F 41.0°F 81% 29.79 in 3.0 miles SSE 13.8 mph 21.9 mph 0.13 in Rain Light Rain
2:44 AM 46.4°F 41.0°F 81% 29.79 in 1.8 miles Variable 6.9 mph 19.6 mph 0.14 in Rain Rain
2:53 AM 46.0°F 42.1°F 86% 29.79 in 1.2 miles SSE 6.9 mph - 0.15 in Rain Light Rain
3:20 AM 46.4°F 42.8°F 87% 29.77 in 1.0 miles SSE 11.5 mph 26.5 mph 0.07 in Rain Light Rain
3:48 AM 46.4°F 42.8°F 87% 29.78 in 0.8 miles SSE 9.2 mph 17.3 mph 0.14 in Rain Rain
3:53 AM 46.0°F 43.0°F 89% 29.78 in 0.8 miles South 6.9 mph 17.3 mph 0.16 in Rain Rain
4:05 AM 46.4°F 42.8°F 87% 29.78 in 1.2 miles SSE 12.7 mph 19.6 mph 0.03 in Rain Light Rain
4:08 AM 46.4°F 42.8°F 87% 29.78 in 2.0 miles South 10.4 mph 24.2 mph 0.03 in Rain Light Rain
4:17 AM 46.4°F 42.8°F 87% 29.78 in 5.0 miles South 8.1 mph 20.7 mph 0.03 in   Overcast
4:33 AM 46.4°F 44.6°F 93% 29.77 in 1.8 miles South 9.2 mph 18.4 mph 0.05 in Rain Rain
4:53 AM 48.0°F 44.1°F 86% 29.78 in 3.0 miles South 9.2 mph 20.7 mph 0.09 in Rain Light Rain
5:46 AM 48.2°F 44.6°F 87% 29.77 in 2.5 miles SW 9.2 mph 17.3 mph 0.01 in Rain Light Rain
5:53 AM 48.0°F 45.0°F 89% 29.77 in 4.0 miles South 10.4 mph 17.3 mph 0.01 in   Overcast
6:22 AM 48.2°F 44.6°F 87% 29.77 in 4.0 miles South 11.5 mph 18.4 mph N/A   Overcast
6:51 AM 48.2°F 44.6°F 87% 29.77 in 4.0 miles South 6.9 mph - N/A   Overcast
6:53 AM 48.0°F 44.1°F 86% 29.78 in 4.0 miles SSW 6.9 mph - N/A   Overcast
7:33 AM 48.2°F 44.6°F 87% 29.78 in 3.0 miles South 6.9 mph - N/A   Overcast
7:53 AM 48.0°F 44.1°F 86% 29.78 in 2.0 miles South 5.8 mph - 0.00 in Rain Light Rain
8:05 AM 48.2°F 44.6°F 87% 29.78 in 1.2 miles SSW 13.8 mph 24.2 mph 0.01 in Rain Light Rain
8:12 AM 44.6°F 39.2°F 81% 29.78 in 0.5 miles SW 9.2 mph 32.2 mph 0.09 in Rain Heavy Rain
8:25 AM 44.6°F 41.0°F 87% 29.78 in 1.5 miles SSW 5.8 mph - 0.13 in Rain Light Rain
8:30 AM 44.6°F 41.0°F 87% 29.78 in 3.0 miles SSW 4.6 mph - 0.14 in Rain Light Rain
8:53 AM 46.9°F 43.0°F 86% 29.77 in 3.0 miles South 8.1 mph - 0.14 in   Overcast
9:00 AM 48.2°F 42.8°F 82% 29.77 in 2.5 miles South 6.9 mph - N/A   Haze
9:11 AM 48.2°F 44.6°F 87% 29.77 in 2.5 miles South 8.1 mph - N/A   Overcast
9:27 AM 48.2°F 44.6°F 87% 29.78 in 2.5 miles SSW 8.1 mph 17.3 mph N/A   Overcast
9:53 AM 48.9°F 45.0°F 86% 29.79 in 2.5 miles SSW 6.9 mph - N/A   Overcast
10:53 AM 50.0°F 44.1°F 80% 29.79 in 2.5 miles South 10.4 mph 18.4 mph 0.00 in Rain Light Rain
10:57 AM 50.0°F 44.6°F 82% 29.79 in 3.0 miles South 11.5 mph 18.4 mph 0.00 in Rain Light Rain
11:18 AM 50.0°F 44.6°F 82% 29.79 in 2.5 miles South 10.4 mph 20.7 mph 0.00 in   Haze
11:29 AM 50.0°F 42.8°F 76% 29.79 in 2.5 miles South 9.2 mph 18.4 mph 0.00 in   Haze
11:53 AM 48.9°F 43.0°F 80% 29.79 in 2.5 miles South 10.4 mph 21.9 mph 0.00 in   Haze
12:01 PM 48.2°F 42.8°F 82% 29.79 in 2.5 miles South 6.9 mph 18.4 mph N/A   Haze
12:12 PM 48.2°F 44.6°F 87% 29.78 in 1.5 miles Variable 5.8 mph - 0.00 in Rain Light Rain
12:22 PM 48.2°F 44.6°F 87% 29.78 in 1.0 miles South 9.2 mph 20.7 mph 0.01 in Rain Light Rain
12:31 PM 48.2°F 44.6°F 87% 29.77 in 2.0 miles South 9.2 mph 25.3 mph 0.01 in Rain Light Rain
12:42 PM 48.2°F 42.8°F 82% 29.77 in 1.8 miles South 15.0 mph 21.9 mph 0.01 in   Haze
12:53 PM 48.0°F 43.0°F 83% 29.78 in 2.0 miles SSW 9.2 mph 24.2 mph 0.01 in Rain Light Rain
1:04 PM 48.2°F 42.8°F 82% 29.78 in 1.2 miles South 13.8 mph 23.0 mph 0.02 in Rain Rain
1:12 PM 48.2°F 42.8°F 82% 29.77 in 1.5 miles South 10.4 mph 20.7 mph 0.03 in Rain Light Rain
1:18 PM 48.2°F 42.8°F 82% 29.77 in 3.0 miles South 12.7 mph 21.9 mph 0.03 in Rain Light Rain
1:27 PM 48.2°F 42.8°F 82% 29.77 in 4.0 miles South 12.7 mph 23.0 mph 0.03 in   Haze
1:44 PM 48.2°F 42.8°F 82% 29.76 in 1.8 miles South 11.5 mph 24.2 mph 0.03 in Rain Light Rain
1:53 PM 48.0°F 43.0°F 83% 29.77 in 1.8 miles South 12.7 mph 23.0 mph 0.04 in Rain Light Rain
2:00 PM 48.2°F 42.8°F 82% 29.76 in 2.5 miles South 10.4 mph 19.6 mph 0.00 in Rain Light Rain
2:21 PM 48.2°F 42.8°F 82% 29.75 in 3.0 miles South 11.5 mph 20.7 mph 0.00 in   Haze
2:40 PM 48.2°F 42.8°F 82% 29.75 in 1.5 miles South 11.5 mph 19.6 mph 0.00 in Rain Light Rain
2:43 PM 48.2°F 42.8°F 82% 29.75 in 0.8 miles South 9.2 mph 18.4 mph 0.00 in Rain Rain
2:53 PM 48.0°F 44.1°F 86% 29.76 in 1.0 miles SSW 8.1 mph 17.3 mph 0.06 in Rain Light Rain
2:57 PM 48.2°F 44.6°F 87% 29.75 in 1.8 miles SW 12.7 mph 24.2 mph 0.00 in Rain Light Rain
2:59 PM 48.2°F 44.6°F 87% 29.76 in 1.0 miles SW 15.0 mph 24.2 mph 0.00 in Rain Light Rain
3:07 PM 46.4°F 42.8°F 87% 29.76 in 0.5 miles SSW 12.7 mph 25.3 mph 0.05 in Fog , Rain Heavy Rain
3:15 PM 46.4°F 41.0°F 81% 29.77 in 1.0 miles SSW 15.0 mph 23.0 mph 0.09 in Rain Light Rain
3:22 PM 46.4°F 41.0°F 81% 29.77 in 1.5 miles SW 11.5 mph 21.9 mph 0.10 in Rain Light Rain
3:27 PM 46.4°F 41.0°F 81% 29.77 in 0.8 miles SW 15.0 mph 24.2 mph 0.10 in Rain Rain
3:42 PM 44.6°F 41.0°F 87% 29.77 in 1.8 miles SW 10.4 mph 26.5 mph 0.18 in Rain Light Rain
3:44 PM 46.4°F 41.0°F 81% 29.77 in 3.0 miles SW 10.4 mph - 0.18 in Rain Light Rain
3:53 PM 46.9°F 43.0°F 86% 29.77 in 3.0 miles SSW 13.8 mph 27.6 mph 0.18 in   Overcast
3:58 PM 46.4°F 42.8°F 87% 29.78 in 1.5 miles WSW 15.0 mph 27.6 mph 0.00 in Rain Light Rain
4:04 PM 46.4°F 41.0°F 81% 29.78 in 0.8 miles SW 15.0 mph 26.5 mph 0.02 in Rain Rain
4:09 PM 44.6°F 39.2°F 81% 29.78 in 1.0 miles SW 11.5 mph 23.0 mph 0.04 in Rain Light Rain
4:15 PM 46.4°F 41.0°F 81% 29.77 in 2.5 miles SW 11.5 mph - 0.05 in Rain Light Rain
4:23 PM 46.4°F 41.0°F 81% 29.77 in 3.0 miles SW 12.7 mph 18.4 mph 0.05 in   Haze
4:44 PM 46.4°F 42.8°F 87% 29.78 in 2.5 miles SSW 10.4 mph 18.4 mph 0.05 in   Scattered Clouds
4:53 PM 48.0°F 43.0°F 83% 29.78 in 2.5 miles SSW 12.7 mph 20.7 mph 0.05 in   Haze
5:08 PM 46.4°F 42.8°F 87% 29.78 in 3.0 miles SW 10.4 mph 18.4 mph N/A   Overcast
5:35 PM 46.4°F 41.0°F 81% 29.79 in 2.5 miles SSW 13.8 mph 34.5 mph 0.01 in Rain Light Rain
5:44 PM 46.4°F 41.0°F 81% 29.79 in 6.0 miles SSW 12.7 mph 18.4 mph 0.01 in   Haze
5:53 PM 46.0°F 41.0°F 83% 29.80 in 5.0 miles SW 6.9 mph - 0.01 in   Haze
6:18 PM 46.4°F 41.0°F 81% 29.80 in 4.0 miles SSW 9.2 mph - N/A   Haze
6:53 PM 46.9°F 42.1°F 83% 29.81 in 4.0 miles SSW 10.4 mph 18.4 mph 0.00 in Rain Light Rain
7:04 PM 46.4°F 42.8°F 87% 29.81 in 4.0 miles SSW 10.4 mph 19.6 mph 0.00 in   Haze
7:28 PM 46.4°F 42.8°F 87% 29.81 in 4.0 miles SSW 9.2 mph 17.3 mph 0.00 in   Haze
7:53 PM 46.0°F 39.9°F 79% 29.83 in 2.0 miles SW 12.7 mph 24.2 mph 0.02 in Rain Light Rain
8:03 PM 44.6°F 39.2°F 81% 29.82 in 3.0 miles SW 11.5 mph 18.4 mph 0.00 in Rain Light Rain
8:30 PM 46.4°F 39.2°F 76% 29.83 in 2.5 miles WSW 9.2 mph 26.5 mph 0.01 in Rain Light Rain
8:39 PM 44.6°F 39.2°F 81% 29.84 in 5.0 miles SW 9.2 mph - 0.02 in Rain Light Rain
8:53 PM 45.0°F 41.0°F 86% 29.85 in 4.0 miles SW 6.9 mph - 0.02 in   Mostly Cloudy
9:53 PM 46.0°F 39.9°F 79% 29.86 in 5.0 miles SW 8.1 mph - 0.00 in   Haze
10:48 PM 46.4°F 41.0°F 81% 29.88 in 4.0 miles SSW 5.8 mph - N/A   Haze
10:53 PM 46.4°F 41.0°F 81% 29.88 in 4.0 miles SSW 5.8 mph - N/A   Haze
11:18 PM 46.4°F 39.2°F 76% 29.88 in 5.0 miles SSW 6.9 mph - N/A   Haze
11:46 PM 46.4°F 41.0°F 81% 29.89 in 5.0 miles SSW 6.9 mph - N/A   Haze
11:53 PM 46.4°F 41.0°F 81% 29.90 in 4.0 miles SSW 5.8 mph - N/A   Haze
Moon Phase
Feb. 05 Feb. 10 Feb. 17 Feb. 25 Mar. 04
Sunrise:07:39 AM (PST) Moon Rise:03:36 AM (PST)2/5
Sunset:05:25 PM (PST) Moon Set:12:39 PM (PST)2/5

Copyright © 2014 The Weather Underground, Inc.